Terminal Aerodrome Forecast
Issued by NWS

Home | Current Version | Previous Version | Text Only | Print | Product List | Glossary On
Versions: 1 2 3 4 5 6 7 8 9 10 11 12 13 14 15 16 17 18 19 20 21 22 23 24 25 26 27 28 29 30 31 32 33
000
FTPA31 PHFO 201500 AAB
TAFLNY
TAF AMD
PHNY 201513Z 2015/2112 05012KT P6SM VCSH SCT015 BKN035
      TEMPO 2015/2017 BKN017
     FM201900 05022G30KT P6SM VCSH SCT020 BKN035
      AMD NOT SKED=

USA.gov is the U.S. government's official web portal to all federal, state and local government web resources and services.